WN4MDN Weather Reports


Display with metric or nautical units.
time (UTC)temp
F
wind
direction
speed
MPH
gust
MPH
rain 1hr
in
rain 24hr
in
rain mn
in
humidity
%
barometer
mb
20260906111618 70 204 0.0 2.0 0.00 0.45 0.00 95 1013.2
20260906111034 70 204 0.0 2.0 0.00 0.45 0.00 95 1013.1
20260906110534 70 204 0.0 2.0 0.00 0.45 0.00 95 1013.0
20260906110100 70 0 0.0 0.0 0.00 0.45 0.00 95 1012.9
20260906105534 70 0 0.0 1.0 0.00 0.45 0.00 95 1012.8
20260906105034 70 0 0.0 1.0 0.00 0.45 0.00 95 1012.8
20260906104557 70 0 0.0 1.0 0.00 0.45 0.00 95 1012.8
20260906104034 70 204 1.0 2.0 0.00 0.45 0.00 95 1012.6
20260906103534 70 204 1.0 2.0 0.00 0.45 0.00 95 1012.5
20260906103100 70 0 0.0 2.0 0.00 0.45 0.00 95 1012.5
20260906102534 70 204 1.0 2.0 0.00 0.45 0.00 95 1012.5
20260906102035 70 204 1.0 3.0 0.00 0.45 0.00 95 1012.3
20260906101556 70 204 2.0 3.0 0.00 0.45 0.00 95 1012.4
20260906101037 70 204 2.0 2.0 0.00 0.45 0.00 95 1012.3
20260906100532 70 202 1.0 2.0 0.00 0.45 0.00 95 1012.2
20260906100057 70 94 0.0 2.0 0.00 0.45 0.00 95 1012.2
20260906095540 70 94 0.0 2.0 0.00 0.45 0.00 95 1012.1
20260906095034 70 94 1.0 2.0 0.00 0.45 0.00 95 1012.0
20260906094604 70 51 1.0 2.0 0.00 0.45 0.00 95 1012.0
20260906094034 70 0 0.0 2.0 0.00 0.45 0.00 95 1011.9
20260906093534 70 0 0.0 2.0 0.00 0.45 0.00 95 1011.8
20260906093102 70 51 0.0 2.0 0.00 0.45 0.00 95 1011.8
20260906092534 70 0 0.0 0.0 0.00 0.45 0.00 95 1011.7
20260906092036 70 0 0.0 2.0 0.00 0.45 0.00 95 1011.5
20260906091557 71 0 0.0 2.0 0.00 0.45 0.00 95 1011.5
20260906091034 71 51 0.0 2.0 0.00 0.45 0.00 95 1011.5
20260906090537 71 51 0.0 2.0 0.00 0.45 0.00 95 1011.5
20260906090101 71 0 0.0 2.0 0.00 0.45 0.00 95 1011.5
20260906085538 71 0 0.0 1.0 0.00 0.45 0.00 95 1011.4
20260906085036 71 0 0.0 2.0 0.00 0.45 0.00 95 1011.3
20260906084552 71 0 0.0 2.0 0.00 0.45 0.00 95 1011.3
20260906084034 71 51 0.0 2.0 0.00 0.45 0.00 95 1011.3
20260906083536 71 0 0.0 0.0 0.00 0.45 0.00 95 1011.2
20260906083100 71 0 0.0 0.0 0.00 0.45 0.00 95 1011.3
20260906082535 71 0 0.0 2.0 0.00 0.45 0.00 95 1011.3
20260906082038 71 0 0.0 2.0 0.00 0.45 0.00 95 1011.4
20260906081557 71 0 0.0 2.0 0.00 0.45 0.00 95 1011.3
20260906081035 70 51 0.0 2.0 0.00 0.45 0.00 95 1011.4
20260906080534 70 0 0.0 0.0 0.00 0.45 0.00 95 1011.4
20260906075535 70 0 0.0 0.0 0.00 0.45 0.00 95 1011.3
20260906075035 70 0 0.0 0.0 0.00 0.45 0.00 95 1011.3
20260906074554 70 0 0.0 2.0 0.00 0.45 0.00 95 1011.4
20260906074040 70 0 0.0 2.0 0.00 0.45 0.00 95 1011.6
20260906073536 70 0 0.0 2.0 0.00 0.45 0.00 95 1011.6
20260906073100 70 0 0.0 1.0 0.00 0.45 0.00 95 1011.6
20260906072537 70 51 0.0 1.0 0.00 0.45 0.00 95 1011.7
20260906072036 70 51 1.0 2.0 0.00 0.45 0.00 95 1011.8
20260906071601 70 51 0.0 2.0 0.00 0.45 0.00 95 1011.9
20260906071036 70 0 0.0 2.0 0.00 0.45 0.00 95 1011.9
20260906070536 70 51 0.0 2.0 0.00 0.45 0.00 95 1012.0
20260906070105 70 51 1.0 2.0 0.00 0.45 0.00 95 1012.2
20260906065535 70 136 1.0 2.0 0.00 0.45 0.00 95 1012.1
20260906065037 71 136 0.0 2.0 0.00 0.45 0.00 95 1012.1
20260906064558 71 0 0.0 2.0 0.00 0.45 0.00 95 1012.1
20260906064038 71 0 0.0 2.0 0.00 0.45 0.00 95 1012.1
20260906063536 71 136 0.0 2.0 0.00 0.45 0.00 95 1012.3
20260906063100 71 0 0.0 2.0 0.00 0.45 0.00 95 1012.3
20260906062536 71 136 0.0 2.0 0.00 0.45 0.00 95 1012.5
20260906062035 71 0 0.0 0.0 0.00 0.45 0.00 95 1012.6
20260906061603 70 0 0.0 1.0 0.00 0.45 0.00 95 1012.6
20260906061033 70 0 0.0 1.0 0.00 0.45 0.00 95 1012.8
20260906060533 70 0 0.0 1.0 0.00 0.45 0.00 94 1013.0
20260906060057 70 0 0.0 0.0 0.00 0.45 0.00 94 1013.1
20260906055534 70 0 0.0 2.0 0.00 0.45 0.00 94 1013.3
20260906055034 70 0 0.0 2.0 0.00 0.45 0.00 94 1013.4
20260906054606 71 0 0.0 2.0 0.00 0.45 0.00 94 1013.5
20260906054034 71 136 0.0 2.0 0.00 0.45 0.00 94 1013.5
20260906053534 71 136 1.0 2.0 0.00 0.45 0.00 94 1013.4
20260906053100 71 0 0.0 2.0 0.00 0.45 0.00 95 1013.5
20260906052534 71 159 0.0 2.0 0.00 0.45 0.00 94 1013.6
20260906052033 71 0 0.0 2.0 0.00 0.45 0.00 94 1013.5
20260906051613 71 159 0.0 2.0 0.00 0.45 0.00 94 1013.6
20260906051034 71 159 0.0 1.0 0.00 0.45 0.00 94 1013.6
20260906050536 71 159 0.0 1.0 0.00 0.45 0.00 94 1013.7
20260906050101 71 159 1.0 2.0 0.00 0.45 0.00 94 1013.7
20260906045534 71 159 1.0 2.0 0.00 0.45 0.00 94 1013.7
20260906045036 71 159 1.0 2.0 0.00 0.45 0.00 94 1013.7
20260906044603 71 159 0.0 1.0 0.00 0.45 0.00 94 1013.7
20260906044035 71 0 0.0 1.0 0.00 0.45 0.00 94 1013.6
20260906043534 71 0 0.0 1.0 0.00 0.45 0.00 94 1013.6
20260906043052 71 0 0.0 1.0 0.00 0.45 0.00 94 1013.6
20260906042534 71 159 1.0 2.0 0.00 0.45 0.00 94 1013.6
20260906042036 71 159 0.0 2.0 0.00 0.45 0.00 94 1013.6
20260906041557 71 0 0.0 1.0 0.00 0.45 0.00 94 1013.5
20260906041034 71 159 0.0 2.0 0.00 0.45 0.00 94 1013.5
20260906040533 71 159 0.0 2.0 0.00 0.45 0.00 94 1013.5
20260906040137 71 0 0.0 2.0 0.00 0.45 0.00 94 1013.5
20260906035533 71 159 0.0 2.0 0.00 0.45 0.45 94 1013.6
20260906035035 71 159 0.0 2.0 0.00 0.45 0.45 94 1013.7
20260906034604 71 159 1.0 2.0 0.00 0.45 0.45 94 1013.8
20260906034032 71 177 1.0 2.0 0.00 0.45 0.45 94 1013.8
20260906033534 71 0 0.0 2.0 0.00 0.45 0.45 94 1013.8
20260906033104 71 187 1.0 2.0 0.00 0.45 0.45 94 1013.8
20260906032537 71 186 1.0 2.0 0.00 0.45 0.45 94 1013.7
20260906032034 71 180 1.0 2.0 0.00 0.45 0.45 94 1013.7
20260906031556 71 180 1.0 2.0 0.00 0.45 0.45 94 1013.8
20260906031037 71 186 1.0 2.0 0.00 0.45 0.45 94 1013.8
20260906030534 71 0 1.0 2.0 0.00 0.45 0.45 94 1013.8
20260906025534 71 186 0.0 2.0 0.00 0.45 0.45 94 1013.7
20260906025033 71 186 0.0 2.0 0.00 0.45 0.45 94 1013.7
20260906024614 71 0 0.0 2.0 0.00 0.45 0.45 94 1013.7
20260906024034 70 0 0.0 2.0 0.00 0.45 0.45 94 1013.7
20260906023533 70 0 0.0 2.0 0.00 0.45 0.45 94 1013.6
20260906023106 70 186 0.0 2.0 0.01 0.45 0.45 94 1013.6
20260906022534 70 0 0.0 1.0 0.01 0.45 0.45 93 1013.6
20260906022034 70 0 0.0 1.0 0.01 0.45 0.45 93 1013.6
20260906021556 70 0 0.0 2.0 0.01 0.45 0.45 93 1013.6
20260906021033 70 186 0.0 2.0 0.01 0.45 0.45 93 1013.5
20260906020534 71 186 0.0 2.0 0.01 0.45 0.45 93 1013.6
20260906020103 71 186 0.0 2.0 0.01 0.45 0.45 93 1013.6
20260906015536 71 186 1.0 4.0 0.02 0.45 0.45 92 1013.7
20260906015034 71 186 1.0 5.0 0.02 0.45 0.45 92 1013.6
20260906014600 71 198 1.0 5.0 0.02 0.45 0.45 92 1013.7
20260906014034 71 192 3.0 5.0 0.02 0.45 0.45 93 1013.8
20260906013533 72 184 3.0 5.0 0.03 0.45 0.45 93 1013.8
20260906013101 72 211 1.0 2.0 0.02 0.44 0.44 93 1013.9
20260906012533 72 140 0.0 3.0 0.02 0.44 0.44 93 1013.9
20260906012033 72 0 1.0 4.0 0.03 0.44 0.44 94 1014.0
20260906011556 72 130 2.0 4.0 0.04 0.44 0.44 93 1013.8
20260906011034 72 174 2.0 4.0 0.05 0.44 0.44 93 1013.8
20260906010535 71 175 1.0 2.0 0.08 0.44 0.44 93 1013.9
20260906010055 71 220 0.0 4.0 0.09 0.44 0.44 93 1014.0
20260906005533 71 220 1.0 4.0 0.09 0.43 0.43 93 1013.8
20260906005034 71 223 3.0 4.0 0.10 0.43 0.43 93 1013.5
20260906004600 71 211 3.0 4.0 0.12 0.43 0.43 93 1013.7
20260906004034 72 167 0.0 3.0 0.15 0.43 0.43 94 1014.1
20260906003535 72 167 0.0 3.0 0.23 0.42 0.42 94 1014.1
20260906003101 71 164 1.0 5.0 0.33 0.42 0.42 94 1014.3
20260906002535 71 182 2.0 5.0 0.39 0.42 0.42 94 1014.5
20260906002037 71 161 2.0 4.0 0.38 0.41 0.41 93 1014.8
20260906001607 71 146 2.0 4.0 0.37 0.40 0.40 93 1015.2
20260906001033 71 47 0.0 16.0 0.36 0.39 0.39 93 1015.1
20260906000535 71 47 2.0 16.0 0.33 0.36 0.36 93 1015.1
20260906000053 71 339 10.0 16.0 0.31 0.34 0.34 93 1015.1
20260905235534 71 306 6.0 15.0 0.31 0.34 0.34 92 1014.5
20260905235034 71 188 8.0 15.0 0.30 0.33 0.33 93 1013.3
20260905234601 71 151 6.0 10.0 0.27 0.30 0.30 92 1013.4
20260905234033 71 222 5.0 10.0 0.24 0.27 0.27 92 1013.5
20260905233534 72 197 7.0 10.0 0.16 0.19 0.19 91 1013.6
20260905233102 72 225 5.0 10.0 0.05 0.08 0.08 90 1014.4
20260905232534 73 216 6.0 20.0 0.00 0.03 0.03 88 1014.6
20260905232034 73 232 7.0 24.0 0.01 0.03 0.03 88 1014.4
20260905231605 75 209 13.0 24.0 0.01 0.03 0.03 86 1014.0
20260905231033 78 206 9.0 22.0 0.01 0.03 0.03 82 1013.9
20260905230533 77 217 2.0 15.0 0.01 0.03 0.03 84 1013.6
20260905225533 76 254 2.0 7.0 0.01 0.03 0.03 87 1013.6
20260905225034 76 149 3.0 10.0 0.01 0.03 0.03 87 1013.1
20260905224616 77 88 4.0 10.0 0.03 0.03 0.03 86 1013.0
20260905224034 77 63 5.0 10.0 0.03 0.03 0.03 85 1013.0
20260905223534 77 67 5.0 8.0 0.03 0.03 0.03 85 1012.7
20260905223106 78 65 3.0 5.0 0.03 0.03 0.03 86 1012.4
20260905222533 78 110 3.0 5.0 0.03 0.03 0.03 86 1012.4
20260905222037 79 75 2.0 5.0 0.02 0.02 0.02 85 1012.4
20260905221604 79 325 3.0 4.0 0.02 0.02 0.02 86 1012.1
20260905221033 80 28 2.0 3.0 0.02 0.02 0.02 84 1011.9
20260905220534 80 63 1.0 7.0 0.02 0.02 0.02 83 1011.9
20260905215534 81 83 4.0 12.0 0.02 0.02 0.02 82 1011.7
20260905215031 82 79 6.0 13.0 0.02 0.02 0.02 81 1011.9
20260905214602 83 78 8.0 13.0 0.00 0.00 0.00 78 1011.9
20260905214034 83 74 7.0 12.0 0.00 0.00 0.00 75 1011.9
20260905213533 83 82 7.0 16.0 0.00 0.00 0.00 74 1012.0
20260905213101 83 74 8.0 15.0 0.00 0.00 0.00 74 1012.2
20260905212536 84 77 10.0 15.0 0.00 0.00 0.00 73 1012.3
20260905212034 84 89 10.0 17.0 0.00 0.00 0.00 73 1012.3
20260905211601 85 83 10.0 18.0 0.00 0.00 0.00 71 1012.3
20260905211034 86 78 13.0 18.0 0.00 0.00 0.00 67 1012.2
20260905210533 89 92 9.0 18.0 0.00 0.00 0.00 63 1011.9
20260905210104 93 58 8.0 13.0 0.00 0.00 0.00 62 1011.9
20260905205533 93 346 3.0 8.0 0.00 0.00 0.00 55 1011.8
20260905205039 93 284 1.0 7.0 0.00 0.00 0.00 56 1011.7
20260905204556 94 283 3.0 7.0 0.00 0.00 0.00 54 1011.7
20260905204038 94 344 3.0 9.0 0.00 0.00 0.00 54 1011.6
20260905203536 94 248 2.0 9.0 0.00 0.00 0.00 56 1011.6
20260905203059 94 229 4.0 9.0 0.00 0.00 0.00 54 1011.7
20260905202535 94 250 3.0 8.0 0.00 0.00 0.00 55 1011.6
20260905202036 94 284 2.0 8.0 0.00 0.00 0.00 53 1011.7
20260905201559 95 198 2.0 5.0 0.00 0.00 0.00 53 1011.7
20260905201035 95 227 2.0 4.0 0.00 0.00 0.00 54 1011.8
20260905200535 94 288 2.0 4.0 0.00 0.00 0.00 57 1011.8
20260905200104 94 0 1.0 5.0 0.00 0.00 0.00 54 1011.7
20260905195537 94 165 2.0 5.0 0.00 0.00 0.00 54 1011.8
20260905195036 94 211 1.0 9.0 0.00 0.00 0.00 54 1011.8
20260905194553 93 285 2.0 9.0 0.00 0.00 0.00 55 1011.9
20260905194039 93 292 5.0 9.0 0.00 0.00 0.00 55 1012.0
20260905193534 93 289 2.0 7.0 0.00 0.00 0.00 55 1012.3
20260905193058 93 292 1.0 7.0 0.00 0.00 0.00 57 1012.3
20260905192537 92 9 2.0 10.0 0.00 0.00 0.00 58 1012.3
20260905192036 93 336 3.0 10.0 0.00 0.00 0.00 58 1012.4
20260905191605 93 276 4.0 9.0 0.00 0.00 0.00 55 1012.4
20260905191034 94 277 2.0 9.0 0.00 0.00 0.00 55 1012.5
20260905190535 94 301 3.0 10.0 0.00 0.00 0.00 53 1012.7
20260905185535 93 292 4.0 10.0 0.00 0.00 0.00 51 1012.7
20260905185035 93 281 3.0 9.0 0.00 0.00 0.00 55 1012.8
20260905184607 93 188 4.0 9.0 0.00 0.00 0.00 52 1012.7
20260905184035 93 224 4.0 7.0 0.00 0.00 0.00 55 1012.8
20260905183535 93 256 2.0 10.0 0.00 0.00 0.00 54 1012.9
20260905183100 93 299 4.0 10.0 0.00 0.00 0.00 56 1012.9
20260905182535 93 290 5.0 10.0 0.00 0.00 0.00 57 1013.0
20260905182036 92 302 2.0 9.0 0.00 0.00 0.00 60 1013.1
20260905181604 92 303 3.0 9.0 0.00 0.00 0.00 59 1013.0
20260905181035 92 292 4.0 8.0 0.00 0.00 0.00 58 1013.2
20260905180536 93 293 4.0 6.0 0.00 0.00 0.00 58 1013.3
20260905180105 92 221 3.0 8.0 0.00 0.00 0.00 58 1013.4
20260905175537 92 345 2.0 8.0 0.00 0.00 0.00 56 1013.5
20260905175036 92 282 2.0 7.0 0.00 0.00 0.00 60 1013.5
20260905174600 91 223 2.0 7.0 0.00 0.00 0.00 61 1013.6
20260905174036 92 275 3.0 8.0 0.00 0.00 0.00 60 1013.6
20260905173536 92 260 5.0 8.0 0.00 0.00 0.00 58 1013.6
20260905173130 93 227 2.0 8.0 0.00 0.00 0.00 58 1013.7
20260905172539 93 222 3.0 8.0 0.00 0.00 0.00 59 1013.8
20260905172036 93 317 1.0 5.0 0.00 0.00 0.00 58 1013.8
20260905171558 92 296 1.0 6.0 0.00 0.00 0.00 60 1013.9
20260905171035 92 257 2.0 11.0 0.00 0.00 0.00 59 1013.9
20260905170536 91 254 3.0 13.0 0.00 0.00 0.00 62 1013.9
20260905170110 91 291 7.0 13.0 0.00 0.00 0.00 61 1013.9
20260905165536 90 228 2.0 10.0 0.00 0.00 0.00 63 1013.9
20260905165037 90 276 5.0 10.0 0.00 0.00 0.00 64 1013.9
20260905164608 90 343 5.0 10.0 0.00 0.00 0.00 64 1014.1
20260905164034 90 290 4.0 10.0 0.00 0.00 0.00 63 1014.2
20260905163538 90 293 4.0 10.0 0.00 0.00 0.00 64 1014.3
20260905163112 90 238 3.0 10.0 0.00 0.00 0.00 64 1014.4
20260905162536 89 220 1.0 10.0 0.00 0.00 0.00 69 1014.5
20260905162036 89 209 4.0 9.0 0.00 0.00 0.00 66 1014.6
20260905161609 90 238 2.0 9.0 0.00 0.00 0.00 63 1014.5
20260905161035 89 255 4.0 10.0 0.00 0.00 0.00 66 1014.7
20260905160535 89 202 5.0 10.0 0.00 0.00 0.00 67 1014.7
20260905160104 89 259 4.0 7.0 0.00 0.00 0.00 67 1014.9
20260905155536 89 244 2.0 8.0 0.00 0.00 0.00 66 1014.9
20260905155035 88 237 3.0 8.0 0.00 0.00 0.00 69 1015.0
20260905154611 88 229 3.0 7.0 0.00 0.00 0.00 71 1015.0
20260905154039 88 295 1.0 5.0 0.00 0.00 0.00 71 1014.9
20260905153534 87 236 1.0 8.0 0.00 0.00 0.00 71 1015.0
20260905153057 88 284 2.0 8.0 0.00 0.00 0.00 72 1015.2
20260905152535 88 284 3.0 8.0 0.00 0.00 0.00 71 1015.3
20260905152035 87 203 2.0 7.0 0.00 0.00 0.00 70 1015.3
20260905151605 87 284 2.0 7.0 0.00 0.00 0.00 73 1015.4
20260905151035 87 234 1.0 7.0 0.00 0.00 0.00 73 1015.3
20260905150535 87 286 2.0 9.0 0.00 0.00 0.00 73 1015.2
20260905150109 87 236 4.0 9.0 0.00 0.00 0.00 71 1015.3
20260905145534 87 224 4.0 10.0 0.00 0.00 0.00 72 1015.3
20260905145036 87 249 3.0 10.0 0.00 0.00 0.00 72 1015.3
20260905144600 87 229 5.0 10.0 0.00 0.00 0.00 72 1015.2
20260905144336 87 247 3.0 9.0 0.00 0.00 0.00 74 1015.3
20260905143534 86 222 3.0 7.0 0.00 0.00 0.00 74 1015.3
20260905143055 86 238 5.0 7.0 0.00 0.00 0.00 73 1015.4
20260905142533 86 208 2.0 7.0 0.00 0.00 0.00 77 1015.3
20260905142032 85 223 2.0 11.0 0.00 0.00 0.00 76 1015.3
20260905141557 85 232 5.0 11.0 0.00 0.00 0.00 76 1015.3
20260905141031 86 229 4.0 8.0 0.00 0.00 0.00 76 1015.2
20260905140534 85 231 1.0 5.0 0.00 0.00 0.00 80 1015.3
20260905135535 84 240 2.0 8.0 0.00 0.00 0.00 81 1015.2
20260905135033 84 220 2.0 8.0 0.00 0.00 0.00 84 1015.2
20260905134557 83 202 4.0 6.0 0.00 0.00 0.00 83 1015.1
20260905134035 83 215 2.0 5.0 0.00 0.00 0.00 84 1015.2
20260905133533 82 229 1.0 4.0 0.00 0.00 0.00 84 1015.2
20260905133101 82 221 2.0 4.0 0.00 0.00 0.00 86 1015.3
20260905132533 82 213 3.0 4.0 0.00 0.00 0.00 86 1015.3
20260905132031 82 290 1.0 4.0 0.00 0.00 0.00 87 1015.2
20260905131604 81 219 1.0 3.0 0.00 0.00 0.00 88 1015.2
20260905131034 81 286 1.0 3.0 0.00 0.00 0.00 88 1015.2
20260905130535 80 225 1.0 3.0 0.00 0.00 0.00 89 1015.3
20260905130101 80 211 1.0 4.0 0.00 0.00 0.00 90 1015.3
20260905125538 79 194 3.0 4.0 0.00 0.00 0.00 89 1015.2
20260905125032 79 213 1.0 2.0 0.00 0.00 0.00 91 1015.2
20260905124555 78 260 0.0 2.0 0.00 0.00 0.00 92 1015.1
20260905124033 78 189 1.0 2.0 0.00 0.00 0.00 91 1015.0
20260905123531 78 189 0.0 2.0 0.00 0.00 0.00 92 1015.0
20260905123106 77 0 0.0 2.0 0.00 0.00 0.00 94 1015.1
20260905122537 76 189 0.0 2.0 0.00 0.00 0.00 93 1015.1
20260905122032 76 0 0.0 2.0 0.00 0.00 0.00 95 1015.1
20260905121558 75 0 0.0 2.0 0.00 0.00 0.00 96 1015.1
20260905121032 74 0 0.0 2.0 0.00 0.00 0.00 95 1015.1
20260905120532 74 189 0.0 2.0 0.00 0.00 0.00 96 1015.1
20260905120058 73 0 0.0 0.0 0.00 0.00 0.00 96 1015.0
20260905115531 73 0 0.0 2.0 0.00 0.00 0.00 96 1015.0
20260905115031 72 0 0.0 2.0 0.00 0.00 0.00 95 1014.9
20260905114559 72 189 0.0 2.0 0.00 0.00 0.00 95 1014.7
20260905114034 71 0 0.0 2.0 0.00 0.00 0.00 95 1014.8
20260905113534 71 0 0.0 2.0 0.00 0.00 0.00 95 1014.8
20260905113055 71 189 0.0 2.0 0.00 0.00 0.00 95 1014.7
20260905112534 71 0 0.0 2.0 0.00 0.00 0.00 94 1014.6
20260905112033 71 189 0.0 1.0 0.00 0.00 0.00 94 1014.5